Regional Weather Roundup
Issued by NWS

Home | Current Version | Previous Version | Text Only | Print | Product List | Glossary Off
Versions: 1 2 3 4 5 6 7 8 9 10 11 12 13 14 15 16 17 18 19 20 21 22 23 24 25 26 27 28 29 30 31 32 33 34 35 36 37 38 39 40 41 42 43 44 45 46 47 48 49 50

000
ASUS43 KDMX 291607
RWRIA

WEATHER ROUNDUP FOR IOWA
NATIONAL WEATHER SERVICE DES MOINES IA
1100 AM CDT MON JUN 29 2015

NOTE: "FAIR" INDICATES FEW OR NO CLOUDS BELOW 12,000 FEET WITH NO
SIGNIFICANT WEATHER AND/OR OBSTRUCTIONS TO VISIBILITY.

* - THESE STATIONS ARE NOT NWS STATIONS...THUS NOT UNDER NWS
QUALITY CONTROL.  THEY ALSO DO NOT REPORT WEATHER SUCH
AS PRECIPITATION OR FOG.

IAZ001>003-012>014-020>022-031>034-043>046-291700-
   NORTHWEST IOWA

CITY           SKY/WX    TMP DP  RH WIND       PRES   REMARKS
CARROLL *      SUNNY     79  64  61 NW13      29.92R HX  81
CHEROKEE *     SUNNY     77  66  69 NW7       29.92F
DENISON *      SUNNY     77  66  69 NW9       29.92S
LE MARS *      SUNNY     77  64  65 VRB6G12   29.95S
ORANGE CITY *  SUNNY     75  63  64 NW8       29.94S
SHELDON *      SUNNY     77  63  61 NW13      29.93S
SIOUX CITY     SUNNY     77  63  61 NW8       29.95S
SPENCER        SUNNY     79  62  56 NW10      29.92S HX  80
STORM LAKE *   SUNNY     77  63  61 NW12G18   29.94S
$$

IAZ055>058-069>071-079>083-090>094-291700-
   SOUTHWEST IOWA

CITY           SKY/WX    TMP DP  RH WIND       PRES   REMARKS
ATLANTIC *     SUNNY     77  64  65 NW10      29.93S
AUDUBON *      SUNNY     79  64  61 NW7       29.94S HX  81
CLARINDA *     SUNNY     79  64  61 NW8       29.94S HX  81
COUNCIL BLFS * SUNNY     77  64  65 NW6       29.95S
CRESTON *      SUNNY     77  63  61 NW13      29.93S
HARLAN  *      SUNNY     77  68  73 N8G14     29.97S
LAMONI         SUNNY     80  65  59 NW8       29.92R HX  82
RED OAK *      SUNNY     79  66  65 N7        29.94R HX  81
SHENANDOAH *   SUNNY     79  64  61 NW9       29.95R HX  81
$$

IAZ047>049-059>061-072>074-084-291700-
   CENTRAL IOWA

CITY           SKY/WX    TMP DP  RH WIND       PRES   REMARKS
AMES           SUNNY     77  65  66 NW13      29.88S
ANKENY *       SUNNY     79  66  65 NW8       29.88S HX  81
CHARITON *     SUNNY     77  66  69 NW13      29.90R
DES MOINES     MOSUNNY   80  64  58 NW9       29.88S HX  82
GRINNELL*      SUNNY     75  66  73 W8        29.88S
KNOXVILLE *    SUNNY     77  66  69 NW12      29.87S
MARSHALLTOWN   SUNNY     75  67  76 NW6       29.87R
PELLA *        SUNNY     77  72  83 W9        29.89S
PERRY *          N/A     77  64  65 NW9       29.90S
$$

IAZ004>006-015-016-023>025-035-036-291700-
   NORTH CENTRAL IOWA

CITY           SKY/WX    TMP DP  RH WIND       PRES   REMARKS
ALGONA *       SUNNY     75  63  64 NW12      29.90S
CLARION *      SUNNY     75  64  69 NW12      29.89R
ESTHERVILLE    SUNNY     75  63  66 NW13      29.91S
FORT DODGE *   SUNNY     77  64  65 NW6       29.91R
MASON CITY     SUNNY     77  66  68 NW9       29.89S
FOREST CITY *  SUNNY     73  64  73 NW10      29.88S
IOWA FALLS *     N/A     77  66  69 NW8       29.89S
$$

IAZ007>011-017>019-026>030-037>042-050>054-066-291700-
   NORTHEAST IOWA

CITY           SKY/WX    TMP DP  RH WIND       PRES   REMARKS
CEDAR RAPIDS   MOSUNNY   74  67  78 NW7       29.85R
CHARLES CITY * SUNNY     75  70  83 NW10      29.86S
CLINTON *      CLOUDY    66  63  88 W3        29.87S
DECORAH *        N/A    N/A N/A N/A MISG        N/A
DUBUQUE        PTSUNNY   69  62  78 N5        29.85R
MONTICELLO *   PTSUNNY   72 -36   1 W3        29.84F
OELWEIN *      MOSUNNY   73  64  73 N5        29.86S
WATERLOO       SUNNY     76  66  71 NW7       29.84S
$$

IAZ064-065-067-068-078-291700-
   EAST CENTRAL IOWA

CITY           SKY/WX    TMP DP  RH WIND       PRES   REMARKS
DAVENPORT      CLOUDY    69  63  81 W7        29.85F
IOWA CITY      SUNNY     74  64  71 W7        29.86S
MT. PLEASANT * MOSUNNY   75  63  64 CALM      29.87S
MUSCATINE *    PTSUNNY   70  63  78 VRB3      29.86S
QUAD CITIES    CLOUDY    70  62  76 NW7       29.84S
$$

IAZ062-063-075>077-085>089-095>099-291700-
   SOUTHEAST IOWA

CITY           SKY/WX    TMP DP  RH WIND       PRES   REMARKS
BURLINGTON     CLOUDY    68  65  90 VRB3      29.87R
FAIRFIELD *    SUNNY     75  64  69 NW8       29.87R
FORT MADISON * PTSUNNY   72  70  94 NW3       29.88S
KEOKUK *       MOSUNNY   73  66  78 NW7       29.86S
OSKALOOSA *      N/A     77  66  69 NW6       29.87S
CENTERVILLE *  SUNNY     77  66  69 NW8       29.91R
OTTUMWA        SUNNY     77  68  73 NW9       29.85S
WASHINGTON *   MOSUNNY   73  66  78 W7G13     29.87S
$$

ABBREVIATIONS USED IN REMARKS
   TC - TEMPERATURES IN CELSIUS
  WCI - WIND CHILL INDEX
   HX - HEAT INDEX
  VSB - VISIBILITY
$$




USA.gov is the U.S. government's official web portal to all federal, state and local government web resources and services.